PAKSAT MM1R

导读

PAKSAT MM1R是巴基斯坦(PK)于2024年5月30日发射的通信卫星,是巴基斯坦航天领域通信服务升级的重要项目。 卫星延续巴基斯坦空间委员会通信卫星布局,预计接替前代卫星提供通信服务,覆盖南亚及周边区域,支持广播电视传输、宽带互联网接入、远程教育医疗等应用,助力巴基斯坦完善偏远地区通信覆盖,提升本土数字通信基础设施能力。

基本信息
目录编号:
59915
目录名称:
PAKSAT MM1R
国际标识:
2024-104A
轨道中心:
EARTH
卫星名称:
PAKSAT MM1R
卫星全名:
--
卫星状态:
在轨 (已飞行746 天)
发射日期:
2024-05-30 UTC
国别 :
巴基斯坦 (PK)
星等 :
--
轨道信息
数据来源 国际轨道数据 AOE轨道数据
星历时间 2026-06-15T04:07:59+0800
4小时前
查看轨道信息
2026-06-15T05:00:00+0800
3小时前
查看轨道信息
半长轴 42163.943km 42163.803km
偏心率 0.0001757 0.0001642
轨道倾角 0.040° 0.040°
近地点辐角 338.733° 348.174°
升交点赤经 92.312° 89.527°
平近点角 172.308° 178.694°
近地点 35778.397km 35778.742km
远地点 35793.215km 35792.59km
周期 1436.057分钟 1436.049分钟
每日圈数 1.002746 1.002751
详细信息
使用方式:
暂无
2D轨道图
3D轨道图
轨道高度分析图
轨道倾角分析图
轨道综合分析图
查看轨道综合分析图